Torna al catalogo

STARLINK-5479

AttivoComunicazioniVLEO
NORAD 55662·PAYLOAD·🇺🇸 United States

Lanciato Feb 17, 2023 da Vandenberg Space Force Base

Loading…

Prossimi Passaggi (prossime 24 ore)

TLE

AggiornatoSource: CelesTrak SupGP

Epoca: Sep 15, 2026, 01:48 UTC

1 55662C 23021AL  26258.07548611  .00652630  00000+0  53722-1 0  2586
2 55662  70.0004  47.3794 0003048 272.2413  29.8396 14.98693673    11

Traccia STARLINK-5479 in tempo reale con AllMySat

Download on the App Store